Location: Ferchesar
(52.6477°N, 12.4298°E)
Time: 17:30:23
(UTC+01:00)

Explorer 7 - Pass Details

Date: 09 December 2021
Orbit: 483 x 674 km, 50.3° (Epoch: 23 January)

Event Time Altitude Azimuth Distance (km) Brightness Sun altitude
Rises 03:15:16 0° 198° (SSW) 2,906 - -42.9°
Reaches altitude 10° 03:18:29 10° 175° (S) 1,962 - -42.5°
Maximum altitude 03:21:01 15° 141° (SE) 1,630 - -42.1°
Drops below altitude 10° 03:23:30 10° 106° (ESE) 1,899 - -41.8°
Exits shadow 03:25:02 - 92° (E) 2,290 10.6 -41.5°
Sets 03:26:31 0° 83° (E) 2,755 11.2 -41.3°
